Home   Weather   Burnaby   Past weeks
Flag for Canada

Past Weather in Burnaby, British Columbia, Canada — Yesterday and Last 2 Weeks

Now
54 °F

Mostly cloudy.


Feels Like: 52 °F
Forecast: 54 / 41 °F
Wind: 7 mph from West

Location: Vancouver International Airport

Current Time: Oct 23, 2019 at 2:49:50 pm

Latest Report: Oct 23, 2019 at 2:00 pm


Visibility: 30 mi

Pressure: 30.52 "Hg

Humidity: 72%

Dew Point: 45 °F

Location of BurnabyLocation

Past Weather in Burnaby — Graph

°F

Burnaby Temperature Yesterday

Maximum temperature yesterday: 55 °F (at 2:00 pm)
Minimum temperature yesterday: 48 °F (at 10:00 pm)
Average temperature yesterday: 51 °F

High & Low Weather Summary for the Past Weeks

 TemperatureHumidityPressure
High57 °F (Oct 17, 12:41 pm)100% (Oct 13, 1:00 am)30.54 "Hg (Oct 13, 1:00 am)
Low32 °F (Oct 10, 4:00 am)34% (Oct 9, 11:00 am)29.55 "Hg (Oct 17, 7:00 pm)
Average48 °F85%30.01 "Hg
* Reported Oct 8 1:00 pm — Oct 23 1:00 pm, Burnaby. Weather by CustomWeather, © 2019

Note: Actual official high and low records may vary slightly from our data, if they occured in-between our weather recording intervals... More about our weather records

Advertising

Burnaby Weather History for the Previous 24 Hours

Scroll right to see more
 ConditionsComfort  
Time TempWeatherWind HumidityBarometerVisibility
1:00 pm
Wed, Oct 23
52 °FPartly sunny.5 mph82%30.53 "Hg30 mi
12:00 pm52 °FPartly sunny.7 mph77%30.54 "Hg30 mi
11:00 am50 °FScattered clouds.5 mph82%30.54 "Hg30 mi
10:00 am48 °FScattered clouds.3 mph82%30.54 "Hg30 mi
9:00 am45 °FOvercast.5 mph93%30.53 "Hg30 mi
8:00 am41 °FFog.No wind93%30.52 "Hg30 mi
7:00 am41 °FFog.2 mph93%30.50 "Hg20 mi
6:21 am39 °FFog.2 mph100%30.50 "Hg20 mi
5:00 am41 °FPassing clouds.No wind93%30.47 "Hg20 mi
4:00 am41 °FPassing clouds.5 mph100%30.47 "Hg20 mi
3:00 am43 °FPassing clouds.2 mph100%30.47 "Hg20 mi
2:00 am43 °FPassing clouds.3 mph93%30.46 "Hg20 mi
1:00 am45 °FPassing clouds.No wind93%30.45 "Hg20 mi
12:00 am46 °FPassing clouds.5 mph93%30.45 "Hg20 mi
11:00 pm
Tue, Oct 22
48 °FPassing clouds.5 mph82%30.43 "Hg20 mi
10:00 pm48 °FPassing clouds.10 mph87%30.42 "Hg20 mi
9:00 pm50 °FPassing clouds.14 mph88%30.40 "Hg20 mi
8:00 pm52 °FPassing clouds.17 mph82%30.39 "Hg20 mi
7:00 pm52 °FPartly cloudy.20 mph82%30.38 "Hg20 mi
6:00 pm52 °FPartly sunny.14 mph82%30.39 "Hg20 mi
5:00 pm54 °FOvercast.17 mph77%30.39 "Hg20 mi
4:00 pm54 °FOvercast.17 mph82%30.38 "Hg20 mi
3:00 pm55 °FPartly sunny.22 mph77%30.36 "Hg20 mi
2:00 pm55 °FPartly sunny.23 mph77%30.36 "Hg30 mi
Weather by CustomWeather, © 2019

See weather overview